FW7560 Weather Reports


time (UTC)temp
F
wind
direction
speed
knots
gust
knots
rain 1hr
in
rain 24hr
in
rain mn
in
humidity
%
barometer
mb
20260503050055 36 0.0 0.0 0.00 0.00 0.00 77 1015.8
20260503044555 37 0.0 0.0 0.00 0.00 0.00 76 1015.7
20260503043054 37 0.0 0.0 0.00 0.00 0.00 74 1015.8
20260503041603 37 0.0 0.0 0.00 0.00 0.00 74 1015.7
20260503040058 38 0.0 0.0 0.00 0.00 0.00 73 1015.5
20260503034606 38 0.0 0.0 0.00 0.00 0.00 71 1015.6
20260503033056 39 0.0 0.0 0.00 0.00 0.00 71 1015.6
20260503031552 39 0.0 0.0 0.00 0.00 0.00 69 1015.6
20260503030057 39 0.0 0.0 0.00 0.00 0.00 69 1015.6
20260503024554 40 0.0 0.0 0.00 0.00 0.00 68 1015.6
20260503023053 40 0.0 0.0 0.00 0.00 0.00 67 1015.7
20260503021553 41 0.0 0.0 0.00 0.00 0.00 66 1015.6
20260503020056 41 0.0 0.0 0.00 0.00 0.00 65 1015.6
20260503014615 42 0.0 0.0 0.00 0.00 0.00 64 1015.4
20260503013049 42 0.0 0.0 0.00 0.00 0.00 62 1015.2
20260503011556 42 0.0 0.0 0.00 0.00 0.00 61 1014.9
20260503010052 43 0.0 0.0 0.00 0.00 0.00 61 1015.0
20260503004552 44 0.0 0.0 0.00 0.00 0.00 59 1014.6
20260503003050 44 0.0 0.0 0.00 0.00 0.00 58 1014.6
20260503001551 45 0.0 0.0 0.00 0.00 0.00 56 1014.7
20260503000053 46 0.0 0.0 0.00 0.00 0.00 54 1014.6
20260502234551 46 0.0 0.0 0.00 0.00 0.00 54 1014.5
20260502233050 47 0.0 0.0 0.00 0.00 0.00 53 1014.5
20260502231609 47 0.0 0.0 0.00 0.00 0.00 52 1014.3
20260502230054 47 0.0 0.0 0.00 0.00 0.00 54 1014.4
20260502224554 48 0.0 0.0 0.00 0.00 0.00 52 1014.2
20260502223054 49 0.0 0.0 0.00 0.00 0.00 51 1014.2
20260502221600 48 0.0 0.0 0.00 0.00 0.00 52 1014.1
20260502214555 49 0.0 0.0 0.00 0.00 0.00 51 1014.0
20260502213054 49 0.0 0.0 0.00 0.00 0.00 51 1013.9
20260502211554 49 0.0 0.0 0.00 0.00 0.00 54 1013.7
20260502210106 49 0.0 0.0 0.00 0.00 0.00 54 1013.7
20260502204556 47 0.0 0.0 0.00 0.00 0.00 55 1014.1
20260502203055 49 0.0 0.0 0.00 0.00 0.00 51 1013.9
20260502201601 50 0.0 0.0 0.00 0.00 0.00 50 1014.0
20260502200105 51 0.0 0.0 0.00 0.00 0.00 49 1013.8
20260502194555 50 0.0 0.0 0.00 0.00 0.00 50 1014.1
20260502193051 50 0.0 0.0 0.00 0.00 0.00 51 1014.0
20260502191558 50 0.0 0.0 0.00 0.00 0.00 49 1013.9
20260502190105 50 0.0 0.0 0.00 0.00 0.00 45 1014.0
20260502184558 50 0.0 0.0 0.00 0.00 0.00 48 1014.2
20260502183052 51 0.0 0.0 0.00 0.00 0.00 48 1014.2
20260502181555 50 0.0 0.0 0.00 0.00 0.00 50 1014.1
20260502180120 51 0.0 0.0 0.00 0.00 0.00 47 1014.1
20260502163053 50 0.0 0.0 0.00 0.00 0.00 46 1014.5
20260502161559 51 0.0 0.0 0.00 0.00 0.00 46 1014.6
20260502151606 49 0.0 0.0 0.00 0.00 0.00 52 1015.0
20260502130104 41 0.0 0.0 0.00 0.00 0.00 71 1015.2
20260502123102 40 0.0 0.0 0.00 0.00 0.00 76 1015.1
20260502121606 40 0.0 0.0 0.00 0.00 0.00 76 1015.1
20260502114554 39 0.0 0.0 0.00 0.00 0.00 78 1015.1
20260502113054 38 0.0 0.0 0.00 0.00 0.00 78 1015.1
20260502111601 38 0.0 0.0 0.00 0.00 0.00 78 1014.9
20260502110054 38 0.0 0.0 0.00 0.00 0.00 77 1014.7
20260502104554 38 0.0 0.0 0.00 0.00 0.00 76 1014.7
20260502103104 38 0.0 0.0 0.00 0.00 0.00 76 1014.7
20260502101614 39 0.0 0.0 0.00 0.00 0.00 75 1014.8
20260502100113 39 0.0 0.0 0.00 0.00 0.00 75 1014.5
20260502080106 43 0.0 0.0 0.00 0.00 0.00 66 1014.8
20260502070052 43 0.0 0.0 0.00 0.00 0.00 66 1014.7
20260502064600 44 0.0 0.0 0.00 0.00 0.00 66 1014.7
20260502063057 44 0.0 0.0 0.00 0.00 0.00 69 1015.0
20260502061552 44 0.0 0.0 0.00 0.00 0.00 74 1015.1
20260502060108 45 0.0 0.0 0.00 0.00 0.00 75 1015.2
20260502054552 45 0.0 0.0 0.00 0.00 0.00 77 1015.3
20260502053100 46 0.0 0.0 0.00 0.00 0.00 77 1014.9
20260502051559 46 0.0 0.0 0.00 0.00 0.00 76 1015.0